Погода в Ильиче

Россия / Карачаево-Черкесская Республика     43°57′08″N   41°31′38″E
темп.,
°C
ветер,
м/с
пор.,
м/с
влажн.,
%
обл.,
%
осадки,
мм/ч
давл.,
гПа
погр.,
м
20 апреля, вт
вт2000:00+10ююв2294100 0.0 101342
03:00+10ююв3280100 0.0 100931
06:00+10ю3381100 0.0 100744
09:00+18ю2354100 0.0 1004137
12:00+22ю61538100 0.0 10042523
15:00+20ссз4555100 0.0 1005987
18:00+12с349797 1.4 1010606
21:00+10св3496100 1.7 1012449
21 апреля, ср
ср2100:00+8всв248398 0.0 1013422
03:00+7всв128480 0.8 1015191
06:00+6св238592 0.0 1016155
09:00+7св2284100 0.2 1018441
12:00+9св3381100 0.1 1017680
15:00+8ссв3293100 0.2 1018404
18:00+7ссв2297100 0.1 1020243
21:00+7ссв1298100 0.3 1021213
22 апреля, чт
чт2200:00+7вюв0197100 0.1 1021216
03:00+7всв0097100 0.1 102091
06:00+7сз0097100 1.0 102024
09:00+9ссв2290100 1.1 1021481
12:00+10ссв3383100 0.2 1020682
15:00+10с3382100 0.9 1019645
18:00+8с2497100 5.4 1021406
21:00+7ююз1195100 8.4 102272
23 апреля, пт
пт2300:00+7зюз1192100 0.2 102155
03:00+7зюз1293100 0.6 102168
06:00+6юз2395100 2.4 1023151
09:00+8ю228035 3.1 1023497
12:00+12ссз326550 1.3 10211250
15:00+12с336798 2.9 10211247
18:00+9с2281100 0.5 102163
21:00+8в118597 0.6 102113
24 апреля, сб
сб2400:00+7ю1189100 0.0 101913
03:00+6ю1187100 0.0 101913
06:00+6юз228199 0.0 102048
09:00+11ссв11667 0.0 1018799
12:00+15ссв344941 0.0 10171704
15:00+14с546667 0.9 1018866
18:00+11ссв3475100 0.5 1019596
21:00+9св1182100 0.5 102024